[[{"header":{"parameterUnit":"m.s-1","parameterCategory":1,"la1":30.2991,"la2":30.254,"lo1":-89.0895,"lo2":-89.0444,"dy":0.0017,"dx":0.0017,"nx":28,"ny":28,"refTime":"2025-07-07T21:00:00:Z","depth":0,"parameterNumber":2,"parameterNumberName":"U-component_of_WINDS"},"data":[0,0,0,0,0,0,0,0,0,0,0,0,0,0,0,0,0,0,0,0,0,0,0,0,0,0,0,0,0,0,0,0,0,0,0,0,0,0,0,0,0,0,0,0,0,0,0,0,0,0,0,0,0,0,0,0,0,0,3.4741,3.4743,0,3.491,3.4912,3.4914,3.4919,3.4917,3.4915,3.4913,3.5092,3.5099,3.5105,0,0,0,0,0,0,0,0,0,0,0,0,0,3.4427,3.4433,3.4741,3.4743,3.4745,3.491,3.4912,3.4914,3.492,3.4917,3.4915,3.4912,3.509,3.5098,3.5106,0,0,0,0,0,0,0,0,0,0,0,0,0,3.4576,3.4434,3.474,3.4767,3.4771,3.4909,3.4912,3.4915,3.492,3.4917,3.4914,3.4911,3.5087,3.5097,3.5107,3.5231,0,0,3.5138,3.5142,0,0,0,0,0,0,0,0,3.4568,3.4588,3.4761,3.4766,3.4771,3.489,3.4867,3.5021,3.4921,3.4864,3.4913,3.491,3.5028,3.5043,3.5081,3.5239,3.5247,3.5138,3.5144,3.5149,3.5152,0,0,0,0,0,0,0,3.4558,3.4581,3.4808,3.4764,3.477,3.4773,3.479,3.4896,3.4961,3.4869,3.4869,3.4889,3.503,3.5072,3.5086,3.525,3.5138,3.5147,3.5153,3.5157,3.5518,3.5521,0,0,0,0,0,0,3.4541,3.4572,3.4802,3.4813,3.4659,3.4781,3.4801,3.4855,3.496,3.4973,3.4892,3.4889,3.5056,3.5074,3.5092,3.5244,3.5149,3.5158,3.5164,3.5514,3.5519,3.5523,0,0,0,0,0,0,3.4534,3.4562,3.4796,3.4693,3.4723,3.4789,3.4851,3.486,3.4902,3.4977,3.499,3.4922,3.5054,3.5078,3.5196,3.525,3.5163,3.5172,3.551,3.5516,3.5521,3.5548,0,0,0,0,0,0,3.4525,3.4559,3.4606,3.4694,3.4728,3.4895,3.4854,3.4866,3.4918,3.4916,3.5009,3.5022,3.5054,3.5181,3.5206,3.5262,3.518,3.5506,3.5513,3.5519,3.5543,3.5554,3.5563,0,0,0,0,0,3.4514,3.4608,3.4608,3.4636,3.4788,3.4898,3.4918,3.4952,3.4923,3.4971,3.502,3.5019,3.524,3.5193,3.5221,3.5281,3.5502,3.5511,3.5519,3.5538,3.5552,3.5563,0,0,0,0,0,0,3.4527,3.462,3.4621,3.4746,3.4814,3.4899,3.4961,3.4965,3.5044,3.5039,3.5079,3.51,3.5217,3.5261,3.5207,3.5407,3.5368,3.5382,3.5373,3.5387,3.5397,3.5384,3.5188,0,0,0,0,0,3.4543,3.4624,3.4702,3.4805,3.4839,3.4894,3.4943,3.4963,3.5036,3.5065,3.5123,3.5195,3.5281,3.5336,3.542,3.5549,3.557,3.5605,3.5615,3.5623,3.5635,3.5707,3.5723,3.5549,3.5549,3.5549,0,0,3.458,3.4641,3.469,3.4809,3.4864,3.4948,3.4918,3.5008,3.5071,3.508,3.5194,3.5239,3.5322,3.5446,3.5504,3.5487,3.5687,3.5633,3.5639,3.5647,3.5717,3.5733,3.5748,3.5555,3.5554,3.5553,0,0,3.4689,3.4743,3.4834,3.489,3.4973,3.5009,3.5031,3.5115,3.5145,3.526,3.5268,3.5344,3.5491,3.555,3.5599,3.573,3.5733,3.5757,3.581,3.588,3.5894,3.5906,3.5953,3.5969,3.5768,3.5768,3.5768,0,3.4724,3.4849,3.4881,3.4971,3.5023,3.5033,3.5126,3.5179,3.5286,3.5323,3.5301,3.5486,3.5543,3.5681,3.5712,3.5752,3.5779,3.5746,3.5889,3.5902,3.5914,3.5959,3.5976,3.5771,3.577,3.577,3.577,0,3.4888,3.4975,3.5039,3.514,3.52,3.5291,3.5338,3.5395,3.541,3.5448,3.5566,3.5634,3.5731,3.5766,3.5782,3.5907,3.5893,3.588,3.5842,3.5932,3.5975,3.5992,3.5774,3.5773,3.5772,3.5772,0,0,3.5009,3.5126,3.5149,3.5195,3.5287,3.5356,3.5448,3.5541,3.5589,3.5663,3.5742,3.5866,3.5854,3.591,3.5933,3.5994,3.6093,3.5973,3.5976,3.5993,3.6235,3.6244,3.6263,3.6095,3.6099,3.6102,3.6228,0,3.5128,3.529,3.5322,3.5463,3.5544,3.5554,3.5635,3.5701,3.574,3.5816,3.586,3.5946,3.5924,3.5958,3.6019,3.6068,3.6142,3.606,3.617,3.6174,3.6148,3.6286,3.6295,3.6411,3.6245,3.6248,3.625,0,3.5288,3.5363,3.5512,3.5594,3.5629,3.57,3.5788,3.586,3.5936,3.596,3.6022,3.6038,3.6135,3.6093,3.6228,3.6171,3.6218,3.6249,3.6255,3.6266,3.6217,3.63,3.6449,3.6466,3.6277,3.6275,3.6273,0,3.536,3.55,3.5607,3.5646,3.5744,3.5794,3.5837,3.591,3.5964,3.6041,3.6077,3.6165,3.6214,3.6283,3.6322,3.6288,3.6455,3.6416,3.6478,3.6477,3.6513,3.651,3.6671,3.6544,3.6544,3.6544,3.6543,0,3.5489,3.558,3.5641,3.5706,3.5809,3.5845,3.5946,3.5989,3.6053,3.6129,3.6144,3.6215,3.6264,3.6342,3.6374,3.6481,3.6503,3.6526,3.6533,3.6524,3.6521,3.6555,3.6548,3.6548,3.6547,3.6546,3.6546,0,3.5588,3.5632,3.5749,3.5832,3.5855,3.5926,3.5998,3.6063,3.6102,3.6197,3.6221,3.6283,3.6376,3.6422,3.6538,3.656,3.6681,3.6684,3.6654,3.6657,3.6717,3.671,3.6905,3.6932,3.6788,3.6789,3.679,0,3.5666,3.5736,3.5826,3.5876,3.592,3.6002,3.6057,3.6096,3.6153,3.6244,3.6298,3.6391,3.6467,3.6615,3.6671,3.676,3.6765,3.6827,3.6779,3.6767,3.6765,3.676,3.6767,3.6835,3.6837,3.6838,3.6839,0,3.5801,3.582,3.5897,3.5982,3.6047,3.6116,3.6185,3.6226,3.6276,3.6339,3.6433,3.6492,3.661,3.6702,3.6795,3.6841,3.6849,3.6854,3.6873,3.6864,3.6844,3.6855,3.6677,3.6849,3.6848,3.6847,3.6847,3.6846,3.5892,3.5954,3.6027,3.6113,3.6168,3.6232,3.6297,3.6343,3.6421,3.6519,3.6538,3.6637,3.6712,3.6837,3.6887,3.6966,3.6953,3.698,3.6987,3.6993,3.6996,3.6831,3.6983,3.6983,3.6983,3.6983,3.6982,0,3.6027,3.6075,3.6153,3.6247,3.6315,3.6315,3.6391,3.6448,3.6535,3.6603,3.6677,3.6786,3.6875,3.6938,3.7029,3.7081,3.7087,3.7104,3.71,3.711,3.7003,3.6977,3.7097,3.7097,3.7097,3.7097,3.7097,3.7097,3.6106,3.6211,3.6238,3.6371,3.6418,3.6514,3.6558,3.6617,3.6671,3.6791,3.6864,3.6904,3.6971,3.7067,3.715,3.7166,3.7199,3.7216,3.7232,3.713,3.7118,3.7106,3.7082,3.7223,3.7223,3.7333,3.7334,3.7334]},{"header":{"parameterUnit":"m.s-1","parameterCategory":1,"la1":30.2991,"la2":30.254,"lo1":-89.0895,"lo2":-89.0444,"dy":0.0017,"dx":0.0017,"nx":28,"ny":28,"refTime":"2025-07-07T21:00:00:Z","depth":0,"parameterNumber":3,"parameterNumberName":"V-component_of_WINDS"},"data":[0,0,0,0,0,0,0,0,0,0,0,0,0,0,0,0,0,0,0,0,0,0,0,0,0,0,0,0,0,0,0,0,0,0,0,0,0,0,0,0,0,0,0,0,0,0,0,0,0,0,0,0,0,0,0,0,0,0,2.9432,2.9432,0,2.9428,2.9428,2.9428,2.9424,2.9424,2.9424,2.9424,2.9417,2.9417,2.9417,0,0,0,0,0,0,0,0,0,0,0,0,0,2.9433,2.9433,2.9432,2.9432,2.9432,2.9428,2.9428,2.9428,2.9424,2.9424,2.9424,2.9424,2.9417,2.9417,2.9417,0,0,0,0,0,0,0,0,0,0,0,0,0,2.9431,2.9433,2.9432,2.943,2.9429,2.9428,2.9428,2.9428,2.9424,2.9424,2.9424,2.9424,2.9417,2.9417,2.9417,2.9417,0,0,2.9416,2.9416,0,0,0,0,0,0,0,0,2.9431,2.9431,2.943,2.943,2.9429,2.9426,2.9426,2.9424,2.9424,2.9426,2.9424,2.9424,2.942,2.942,2.9419,2.9417,2.9416,2.9416,2.9416,2.9416,2.9416,0,0,0,0,0,0,0,2.9432,2.9431,2.943,2.943,2.943,2.9427,2.9427,2.9426,2.9423,2.9426,2.9425,2.9425,2.942,2.9419,2.9419,2.9416,2.9416,2.9416,2.9416,2.9416,2.9412,2.9412,0,0,0,0,0,0,2.9432,2.9432,2.9431,2.943,2.943,2.9428,2.9427,2.9427,2.9423,2.9423,2.9425,2.9425,2.942,2.9419,2.9419,2.9417,2.9416,2.9416,2.9416,2.9412,2.9412,2.9412,0,0,0,0,0,0,2.9433,2.9432,2.9431,2.9431,2.943,2.9428,2.9428,2.9427,2.9427,2.9423,2.9422,2.9425,2.9419,2.9419,2.9417,2.9417,2.9416,2.9416,2.9412,2.9412,2.9412,2.9415,0,0,0,0,0,0,2.9433,2.9432,2.9434,2.9431,2.943,2.943,2.9428,2.9427,2.9427,2.9426,2.9423,2.9422,2.9419,2.9417,2.9417,2.9417,2.9415,2.9412,2.9412,2.9412,2.9415,2.9415,2.9416,0,0,0,0,0,2.9433,2.9435,2.9434,2.9433,2.9432,2.9431,2.943,2.9428,2.9427,2.9427,2.9424,2.9422,2.9417,2.9417,2.9417,2.9416,2.9412,2.9412,2.9412,2.9415,2.9415,2.9416,0,0,0,0,0,0,2.9437,2.9434,2.9433,2.9435,2.9433,2.943,2.943,2.9428,2.9427,2.9426,2.9422,2.9422,2.942,2.9418,2.9418,2.9415,2.9414,2.9414,2.9417,2.9417,2.9417,2.9417,2.9415,0,0,0,0,0,2.9438,2.9438,2.9436,2.9437,2.9436,2.9433,2.9433,2.9431,2.9429,2.9428,2.9425,2.9422,2.942,2.9418,2.9416,2.9415,2.9413,2.9414,2.9414,2.9414,2.9414,2.9411,2.9411,2.9412,2.9412,2.9412,0,0,2.9441,2.9439,2.9439,2.9438,2.9436,2.9435,2.9433,2.9432,2.9431,2.9427,2.9426,2.9423,2.9419,2.9418,2.9417,2.9416,2.9414,2.9414,2.9415,2.9414,2.9411,2.9411,2.9411,2.9412,2.9412,2.9412,0,0,2.9444,2.9444,2.9444,2.9443,2.944,2.9438,2.9438,2.9435,2.9433,2.9431,2.9428,2.9426,2.9422,2.9419,2.9417,2.9418,2.9415,2.9417,2.9418,2.9415,2.9415,2.9415,2.9414,2.9414,2.9417,2.9417,2.9417,0,2.9448,2.9447,2.9445,2.9444,2.9442,2.9439,2.9439,2.9437,2.9433,2.9432,2.9431,2.9425,2.9423,2.9419,2.9419,2.9418,2.9417,2.9417,2.9416,2.9416,2.9416,2.9414,2.9414,2.9417,2.9417,2.9417,2.9417,0,2.945,2.9449,2.945,2.9447,2.9445,2.9445,2.9441,2.944,2.9437,2.9435,2.9431,2.9428,2.9424,2.9423,2.9421,2.9419,2.9418,2.9417,2.9415,2.9416,2.9414,2.9414,2.9417,2.9417,2.9417,2.9417,0,0,2.9457,2.9452,2.9452,2.945,2.9446,2.9445,2.9443,2.944,2.9438,2.9435,2.9433,2.9429,2.9427,2.9425,2.9422,2.942,2.9418,2.9418,2.9418,2.9417,2.9413,2.9414,2.9414,2.9416,2.9416,2.9416,2.9413,0,2.946,2.9458,2.9455,2.9453,2.9451,2.9447,2.9445,2.9442,2.9439,2.9436,2.9432,2.9429,2.9427,2.9426,2.9423,2.9419,2.9417,2.9419,2.9413,2.9412,2.9413,2.9413,2.9415,2.9412,2.9413,2.9413,2.9413,0,2.9463,2.946,2.9458,2.9453,2.9452,2.9451,2.9446,2.9444,2.9439,2.9437,2.9434,2.9431,2.9427,2.9426,2.9419,2.9421,2.9418,2.9415,2.9414,2.9413,2.9413,2.9411,2.9411,2.9411,2.9412,2.9412,2.9412,0,2.9467,2.9463,2.9461,2.9459,2.9453,2.9452,2.9449,2.9445,2.9442,2.9438,2.9436,2.9431,2.9428,2.9424,2.9419,2.9419,2.9412,2.9411,2.9409,2.9409,2.9408,2.9408,2.9407,2.9407,2.9407,2.9407,2.9407,0,2.9469,2.9468,2.9462,2.9461,2.9459,2.9455,2.9452,2.9449,2.9444,2.9441,2.9437,2.9434,2.9428,2.9423,2.9419,2.9413,2.9412,2.9409,2.9408,2.9409,2.941,2.9407,2.9407,2.9407,2.9407,2.9407,2.9407,0,2.9474,2.947,2.9467,2.9462,2.946,2.9459,2.9453,2.9451,2.9447,2.9443,2.9442,2.9435,2.943,2.9424,2.9417,2.9414,2.9408,2.9407,2.941,2.9409,2.9407,2.9407,2.9403,2.9402,2.9404,2.9404,2.9404,0,2.9476,2.9475,2.9469,2.9466,2.9464,2.9461,2.9458,2.9453,2.945,2.9444,2.9441,2.9436,2.9431,2.9422,2.9415,2.9409,2.9407,2.9406,2.9406,2.9407,2.9406,2.9406,2.9405,2.9406,2.9406,2.9406,2.9406,0,2.9479,2.9477,2.9473,2.9469,2.9466,2.9462,2.9458,2.9456,2.945,2.9446,2.9441,2.9437,2.9429,2.9422,2.9415,2.941,2.9407,2.9406,2.9405,2.9406,2.9408,2.9406,2.9409,2.9406,2.9406,2.9406,2.9406,2.9406,2.9481,2.9479,2.9475,2.947,2.9467,2.9463,2.946,2.9455,2.9451,2.9444,2.9441,2.9435,2.9428,2.9418,2.9413,2.9408,2.9407,2.9406,2.9405,2.9405,2.9404,2.9409,2.9406,2.9406,2.9406,2.9406,2.9406,0,2.9483,2.948,2.9476,2.947,2.9466,2.9464,2.9459,2.9455,2.945,2.9445,2.944,2.9432,2.9425,2.9418,2.9411,2.9407,2.9405,2.9405,2.9405,2.9404,2.9406,2.9407,2.9407,2.9407,2.9407,2.9407,2.9407,2.9407,2.9484,2.948,2.9477,2.9471,2.9467,2.9461,2.9458,2.9454,2.9449,2.9441,2.9436,2.9431,2.9424,2.9416,2.9409,2.9407,2.9404,2.9404,2.9402,2.9404,2.9404,2.9404,2.9405,2.9404,2.9404,2.9399,2.9399,2.9399]}]]